Location: Unspecified
(0.0000°N, 0.0000°E)
Time: 13:41:56
(UTC+00:00)

Transit 4A - All Passes

Search period start: 01 August 2021 00:00
Search period end: 11 August 2021 00:00
Orbit: 872 x 972 km, 66.8° (Epoch: 31 July)

Date Brightness Start Highest point End Pass type
(mag) Time Alt. Az. Time Alt. Az. Time Alt. Az.
01 Aug - 09:30:24 10° NNE 09:35:34 30° ENE 09:40:51 10° SE daylight
01 Aug - 11:17:00 10° WNW 11:21:39 23° WSW 11:26:25 10° SSW daylight
01 Aug - 20:46:41 10° ESE 20:47:30 10° ESE 20:48:19 10° ESE night (unlit)
01 Aug - 22:27:41 10° SSW 22:33:43 60° WNW 22:39:32 10° N night (unlit)
02 Aug - 09:38:59 10° N 09:44:48 51° ENE 09:50:48 10° SE daylight
02 Aug - 11:28:20 10° W 11:30:59 13° WSW 11:33:39 10° SW daylight
02 Aug - 20:52:38 10° SSE 20:56:50 19° ESE 21:00:57 10° ENE night (unlit)
02 Aug - 22:37:29 10° SW 22:42:56 34° WNW 22:48:15 10° N night (unlit)
03 Aug - 09:47:59 10° NNW 09:54:02 87° ENE 10:00:17 10° SSE daylight
03 Aug - 21:00:43 10° S 21:06:08 33° ESE 21:11:24 10° NE night (unlit)
03 Aug - 22:47:54 10° WSW 22:52:11 20° WNW 22:56:23 10° NNW night (unlit)
04 Aug - 08:15:18 10° NE 08:17:15 12° ENE 08:19:12 10° E daylight
04 Aug - 09:57:24 10° NNW 10:03:17 55° WSW 10:09:23 10° S daylight
04 Aug - 21:09:24 10° S 21:15:24 57° ESE 21:21:13 10° NNE night (unlit)
04 Aug - 23:00:09 10° W 23:01:26 11° WNW 23:02:44 10° WNW night (unlit)
05 Aug - 08:22:05 10° NNE 08:26:31 21° ENE 08:31:01 10° ESE daylight
05 Aug - 10:07:14 10° NW 10:12:34 32° WSW 10:18:03 10° S daylight
05 Aug - 21:18:31 10° SSW 21:24:39 84° WNW 21:30:35 10° NNE night (unlit)
06 Aug - 08:30:16 10° N 08:35:45 36° ENE 08:41:22 10° SE daylight
06 Aug - 10:17:43 10° WNW 10:21:52 19° WSW 10:26:06 10° SSW daylight
06 Aug - 19:45:02 10° SE 19:47:43 13° ESE 19:50:22 10° E night (unlit)
06 Aug - 21:28:02 10° SW 21:33:53 49° WNW 21:39:35 10° N night (unlit)
07 Aug - 08:39:01 10° N 08:45:00 62° ENE 08:51:08 10° SSE daylight
07 Aug - 10:30:33 10° WSW 10:31:12 10° WSW 10:31:52 10° WSW daylight
07 Aug - 19:52:19 10° SSE 19:57:03 23° ESE 20:01:39 10° ENE night (unlit)
07 Aug - 21:38:01 10° SW 21:43:07 28° WNW 21:48:07 10° NNW night (unlit)
08 Aug - 08:48:11 10° NNW 08:54:14 78° WSW 09:00:28 10° SSE daylight
08 Aug - 20:00:39 10° S 20:06:20 40° ESE 20:11:49 10° NE visible
08 Aug - 21:48:46 10° WSW 21:52:21 16° WNW 21:55:54 10° NNW night (unlit)
09 Aug - 07:14:14 10° NE 07:17:27 15° ENE 07:20:41 10° ESE daylight
09 Aug - 08:57:43 10° NW 09:03:29 46° WSW 09:09:26 10° S daylight
09 Aug - 20:09:30 10° SSW 20:15:35 69° ESE 20:21:29 10° NNE visible
10 Aug - 07:21:47 10° NNE 07:26:41 26° ENE 07:31:42 10° SE daylight
10 Aug - 09:07:44 10° NW 09:12:46 27° WSW 09:17:55 10° SSW daylight
10 Aug - 20:18:45 10° SSW 20:24:49 70° WNW 20:30:43 10° NNE visible
